[[{"header":{"parameterUnit":"m.s-1","parameterCategory":1,"la1":30.2991,"la2":30.254,"lo1":-89.0895,"lo2":-89.0444,"dy":0.0017,"dx":0.0017,"nx":28,"ny":28,"refTime":"2024-08-10T15:00:00:Z","depth":0,"parameterNumber":2,"parameterNumberName":"U-component_of_WINDS"},"data":[0,0,0,0,0,0,0,0,0,0,0,0,0,0,0,0,0,0,0,0,0,0,0,0,0,0,0,0,0,0,0,0,0,0,0,0,0,0,0,0,0,0,0,0,0,0,0,0,0,0,0,0,0,0,0,0,0,0,2.6639,2.6641,0,2.6796,2.6798,2.68,2.6799,2.6797,2.6795,2.6793,2.6956,2.6962,2.6968,0,0,0,0,0,0,0,0,0,0,0,0,0,2.6338,2.6343,2.6639,2.6641,2.6643,2.6796,2.6798,2.68,2.6799,2.6797,2.6794,2.6792,2.6954,2.6961,2.6969,0,0,0,0,0,0,0,0,0,0,0,0,0,2.6479,2.6345,2.6638,2.6661,2.6664,2.6796,2.6798,2.6801,2.68,2.6797,2.6793,2.6791,2.6952,2.6961,2.697,2.709,0,0,2.6999,2.7003,0,0,0,0,0,0,0,0,2.6471,2.649,2.6655,2.6659,2.6663,2.6775,2.6752,2.6898,2.68,2.6748,2.6793,2.6789,2.6898,2.6912,2.6948,2.7098,2.7105,2.7,2.7005,2.7009,2.7012,0,0,0,0,0,0,0,2.6461,2.6483,2.6701,2.6658,2.6663,2.6663,2.6679,2.678,2.6839,2.6753,2.6753,2.6771,2.69,2.6939,2.6952,2.7107,2.6999,2.7008,2.7014,2.7017,2.7361,2.7364,0,0,0,0,0,0,2.6447,2.6475,2.6696,2.6706,2.6558,2.6671,2.6689,2.6742,2.6838,2.6849,2.6774,2.6771,2.6925,2.6941,2.6958,2.7102,2.7009,2.7018,2.7024,2.7357,2.7361,2.7365,0,0,0,0,0,0,2.644,2.6466,2.669,2.6591,2.6619,2.6679,2.6739,2.6747,2.6786,2.6854,2.6865,2.6803,2.6923,2.6945,2.7057,2.7108,2.7022,2.7031,2.7353,2.7358,2.7363,2.7394,0,0,0,0,0,0,2.6432,2.6464,2.651,2.6592,2.6624,2.6786,2.6742,2.6752,2.6802,2.6799,2.6884,2.6895,2.6922,2.7042,2.7066,2.7119,2.7038,2.7349,2.7355,2.7362,2.7388,2.7399,2.7409,0,0,0,0,0,2.6421,2.6514,2.6513,2.6539,2.6683,2.6789,2.6807,2.6836,2.6806,2.6853,2.6896,2.6892,2.7099,2.7054,2.708,2.7137,2.7346,2.7354,2.7361,2.7384,2.7397,2.7408,0,0,0,0,0,0,2.6438,2.6525,2.6525,2.6647,2.671,2.6788,2.6848,2.685,2.6923,2.6918,2.6951,2.697,2.7081,2.7121,2.7069,2.7258,2.7219,2.7232,2.7227,2.724,2.725,2.7237,2.7046,0,0,0,0,0,2.6456,2.6534,2.6606,2.6707,2.6738,2.6788,2.6835,2.6851,2.6918,2.6945,2.6997,2.7063,2.7142,2.7194,2.7271,2.7395,2.7412,2.7447,2.7457,2.7465,2.7476,2.7541,2.7556,2.7391,2.7391,2.7391,0,0,2.6494,2.6551,2.6598,2.6711,2.6762,2.6841,2.681,2.6896,2.6955,2.6959,2.7066,2.7106,2.7182,2.7299,2.7354,2.7336,2.7525,2.7475,2.7481,2.7487,2.7551,2.7566,2.758,2.7396,2.7395,2.7394,0,0,2.6603,2.6655,2.6743,2.6794,2.6871,2.6903,2.6924,2.7002,2.7028,2.7137,2.714,2.7211,2.7349,2.7401,2.7446,2.7573,2.7571,2.7598,2.765,2.7713,2.7726,2.7738,2.778,2.7795,2.7608,2.7609,2.7609,0,2.664,2.6759,2.6788,2.6873,2.6922,2.6928,2.7016,2.7065,2.7164,2.7198,2.7177,2.7347,2.7399,2.7526,2.7557,2.7595,2.7618,2.7587,2.7722,2.7734,2.7745,2.7786,2.7802,2.7611,2.7611,2.761,2.761,0,2.6799,2.6882,2.6944,2.7037,2.7093,2.718,2.7222,2.7275,2.7287,2.7321,2.743,2.7492,2.758,2.7613,2.7626,2.7742,2.7728,2.7715,2.7676,2.7763,2.7801,2.7817,2.7614,2.7614,2.7613,2.7612,0,0,2.6922,2.7029,2.7051,2.7092,2.7178,2.7242,2.7329,2.7414,2.7458,2.7526,2.7598,2.7713,2.77,2.7751,2.777,2.7826,2.7918,2.7805,2.7807,2.7821,2.8047,2.8054,2.8072,2.7919,2.7922,2.7925,2.8039,0,2.7037,2.7189,2.7217,2.735,2.7426,2.7432,2.7507,2.7568,2.7602,2.7671,2.7709,2.7788,2.7767,2.7797,2.7853,2.7895,2.7964,2.7888,2.7984,2.7987,2.7962,2.8093,2.8102,2.8207,2.8055,2.8058,2.806,0,2.7191,2.7261,2.7401,2.7473,2.7506,2.7573,2.7652,2.7719,2.7787,2.7807,2.7863,2.7876,2.7965,2.7924,2.8046,2.7994,2.8035,2.8062,2.8067,2.8074,2.8026,2.8101,2.8242,2.8256,2.8084,2.8082,2.8081,0,2.7262,2.7392,2.7491,2.7527,2.7615,2.7661,2.7701,2.7766,2.7814,2.7884,2.7916,2.7996,2.8039,2.81,2.8133,2.8101,2.8252,2.8215,2.827,2.8269,2.83,2.8297,2.8446,2.8332,2.8332,2.8331,2.8331,0,2.7385,2.747,2.7524,2.7585,2.7679,2.7711,2.7803,2.7842,2.7899,2.7967,2.798,2.8043,2.8085,2.8154,2.8181,2.8276,2.8297,2.8315,2.8321,2.8312,2.8309,2.8338,2.833,2.8336,2.8335,2.8334,2.8333,0,2.7479,2.7519,2.7627,2.7702,2.7723,2.7788,2.7852,2.7911,2.7945,2.8031,2.8053,2.8107,2.8189,2.8229,2.8332,2.8349,2.8456,2.8459,2.8433,2.8434,2.8486,2.8479,2.8656,2.868,2.8553,2.8554,2.8555,0,2.7554,2.7618,2.7699,2.7745,2.7785,2.7859,2.7908,2.7943,2.7993,2.8075,2.8123,2.8206,2.8273,2.8404,2.8452,2.853,2.8533,2.8589,2.8544,2.8533,2.8529,2.8524,2.8529,2.8596,2.8597,2.8598,2.8599,0,2.768,2.7696,2.7767,2.7843,2.7901,2.7964,2.8025,2.8062,2.8106,2.8163,2.8246,2.8298,2.8402,2.8483,2.8564,2.8604,2.8608,2.8613,2.863,2.862,2.8601,2.8608,2.8451,2.8608,2.8607,2.8607,2.8606,2.8606,2.7765,2.7821,2.7886,2.7963,2.8013,2.807,2.8128,2.8169,2.8238,2.8324,2.8341,2.8429,2.8494,2.8603,2.8646,2.8714,2.8702,2.8726,2.8732,2.8737,2.8737,2.8592,2.873,2.873,2.873,2.8729,2.8729,0,2.7888,2.793,2.8001,2.8086,2.8146,2.8146,2.8213,2.8263,2.834,2.84,2.8466,2.8561,2.8639,2.8693,2.8772,2.8816,2.882,2.8836,2.8831,2.884,2.8746,2.8722,2.8831,2.8831,2.8831,2.8831,2.8831,2.8831,2.796,2.8055,2.8078,2.8197,2.8239,2.8324,2.8362,2.8414,2.8462,2.8567,2.8631,2.8666,2.8723,2.8806,2.8878,2.8892,2.8919,2.8934,2.8947,2.8858,2.8847,2.8837,2.8814,2.894,2.8941,2.9035,2.9035,2.9036]},{"header":{"parameterUnit":"m.s-1","parameterCategory":1,"la1":30.2991,"la2":30.254,"lo1":-89.0895,"lo2":-89.0444,"dy":0.0017,"dx":0.0017,"nx":28,"ny":28,"refTime":"2024-08-10T15:00:00:Z","depth":0,"parameterNumber":3,"parameterNumberName":"V-component_of_WINDS"},"data":[0,0,0,0,0,0,0,0,0,0,0,0,0,0,0,0,0,0,0,0,0,0,0,0,0,0,0,0,0,0,0,0,0,0,0,0,0,0,0,0,0,0,0,0,0,0,0,0,0,0,0,0,0,0,0,0,0,0,2.9312,2.9312,0,2.9306,2.9306,2.9306,2.9238,2.9237,2.9235,2.9233,2.9226,2.9227,2.9229,0,0,0,0,0,0,0,0,0,0,0,0,0,2.9262,2.9263,2.9312,2.9312,2.9312,2.9306,2.9306,2.9306,2.9239,2.9236,2.9234,2.9232,2.9225,2.9227,2.9229,0,0,0,0,0,0,0,0,0,0,0,0,0,2.9273,2.9263,2.9312,2.9278,2.9274,2.9306,2.9306,2.9306,2.9239,2.9236,2.9234,2.9231,2.9225,2.9227,2.9229,2.9293,0,0,2.9235,2.9236,0,0,0,0,0,0,0,0,2.9272,2.9274,2.9283,2.928,2.9277,2.927,2.9286,2.9302,2.924,2.9252,2.9233,2.923,2.9243,2.9243,2.9248,2.9293,2.9292,2.9236,2.9237,2.9238,2.9238,0,0,0,0,0,0,0,2.9271,2.9274,2.931,2.9283,2.9279,2.9261,2.926,2.9288,2.9262,2.9251,2.9246,2.9246,2.924,2.9246,2.9247,2.9292,2.9235,2.9237,2.9239,2.9239,2.9385,2.9387,0,0,0,0,0,0,2.9276,2.9274,2.931,2.9309,2.9268,2.9264,2.9263,2.9275,2.9261,2.9257,2.9249,2.9243,2.9243,2.9245,2.9246,2.9316,2.9238,2.924,2.9241,2.9382,2.9385,2.9388,0,0,0,0,0,0,2.9275,2.928,2.931,2.929,2.9293,2.9268,2.9282,2.9276,2.9281,2.926,2.9254,2.9259,2.9241,2.9243,2.9281,2.9315,2.9241,2.9242,2.9379,2.9383,2.9387,2.9459,0,0,0,0,0,0,2.9274,2.928,2.9305,2.9292,2.9294,2.9346,2.9284,2.9278,2.9285,2.9278,2.9268,2.9264,2.924,2.9278,2.9283,2.9317,2.9244,2.9376,2.9381,2.9385,2.9454,2.9465,2.9475,0,0,0,0,0,2.9272,2.9326,2.9306,2.9311,2.9325,2.9348,2.9349,2.9321,2.9288,2.9312,2.9298,2.9264,2.9312,2.9283,2.9287,2.9322,2.9373,2.9379,2.9385,2.9449,2.9463,2.9475,0,0,0,0,0,0,2.9344,2.9324,2.9302,2.9353,2.9353,2.9337,2.9366,2.9338,2.9346,2.9339,2.9303,2.9301,2.9343,2.9337,2.9305,2.9381,2.9336,2.9343,2.9383,2.9397,2.9407,2.9406,2.9246,0,0,0,0,0,2.9366,2.9387,2.9368,2.9415,2.9416,2.9392,2.9401,2.9378,2.9376,2.9376,2.9364,2.9363,2.9377,2.9387,2.9399,2.9454,2.9448,2.948,2.9491,2.95,2.9505,2.9529,2.9541,2.9407,2.9407,2.9407,0,0,2.9412,2.9403,2.9419,2.943,2.9427,2.9447,2.9392,2.9417,2.9431,2.938,2.9413,2.9405,2.9401,2.9446,2.9465,2.9442,2.9541,2.9507,2.9515,2.9515,2.9536,2.9549,2.956,2.9411,2.941,2.941,0,0,2.9503,2.9501,2.9538,2.9536,2.9532,2.9514,2.9523,2.9511,2.9503,2.9537,2.9497,2.9513,2.954,2.9537,2.9539,2.9628,2.9596,2.9634,2.9688,2.9712,2.9723,2.9732,2.9759,2.977,2.964,2.964,2.964,0,2.956,2.959,2.956,2.9587,2.9591,2.9546,2.9581,2.9581,2.9581,2.9584,2.9559,2.9588,2.9583,2.9624,2.9646,2.9651,2.9657,2.9633,2.9724,2.9733,2.9741,2.9766,2.9777,2.9644,2.9644,2.9644,2.9643,0,2.9657,2.9679,2.9709,2.9709,2.9717,2.9749,2.9722,2.9734,2.9711,2.9696,2.9729,2.9721,2.9728,2.9737,2.9716,2.9775,2.976,2.973,2.9683,2.9758,2.9781,2.9791,2.9651,2.9649,2.9648,2.9647,0,0,2.9793,2.9775,2.9786,2.9784,2.9776,2.9791,2.982,2.9827,2.9836,2.9838,2.9858,2.9881,2.9852,2.9854,2.9833,2.9854,2.992,2.982,2.982,2.9835,2.9979,2.9999,3.0011,2.99,2.9902,2.9903,2.9978,0,2.9878,2.9924,2.9897,2.9947,2.9964,2.9921,2.9945,2.9941,2.9928,2.994,2.9925,2.994,2.9903,2.9904,2.9923,2.9908,2.9947,2.9902,2.9915,2.9916,2.9913,3.0024,3.0045,3.0116,2.9987,2.9989,2.999,0,2.9983,2.9987,3.0039,3.0024,3.003,3.0052,3.0054,3.0068,3.0062,3.0051,3.0053,3.0025,3.0049,3.0006,3.0038,3.0007,3.0012,3.0005,3.0007,3.0003,2.9955,3.0019,3.0139,3.0148,3.0005,3.0004,3.0003,0,3.0071,3.0091,3.0122,3.0123,3.0107,3.0123,3.0117,3.0109,3.0114,3.0117,3.0119,3.0126,3.0128,3.0133,3.0106,3.0078,3.014,3.0095,3.0128,3.0129,3.014,3.0139,3.0257,3.015,3.015,3.015,3.0149,0,3.0166,3.0198,3.0161,3.018,3.0214,3.0183,3.0216,3.0206,3.0199,3.0214,3.0178,3.0193,3.0159,3.017,3.015,3.0177,3.018,3.0169,3.0162,3.017,3.017,3.0169,3.0162,3.0152,3.0152,3.0151,3.0151,0,3.0268,3.0246,3.0276,3.0259,3.0255,3.028,3.0265,3.0281,3.0265,3.0284,3.0287,3.0262,3.0273,3.0248,3.0256,3.0242,3.0279,3.0267,3.028,3.0275,3.0307,3.0303,3.0426,3.0438,3.0327,3.0328,3.0329,0,3.0328,3.0351,3.0336,3.0343,3.0339,3.0352,3.0356,3.0326,3.0332,3.0326,3.0342,3.035,3.0354,3.0374,3.0355,3.036,3.0345,3.0388,3.0345,3.0351,3.034,3.0338,3.0338,3.0395,3.0397,3.0398,3.0399,0,3.0435,3.0422,3.043,3.0434,3.044,3.0441,3.044,3.0448,3.0416,3.0424,3.0434,3.0438,3.0444,3.0451,3.0452,3.0445,3.0415,3.0413,3.0419,3.0425,3.043,3.0423,3.0299,3.0409,3.0408,3.0407,3.0407,3.0406,3.0515,3.0532,3.0522,3.0532,3.0527,3.0527,3.054,3.0525,3.0533,3.0536,3.0518,3.0531,3.0523,3.052,3.0516,3.0525,3.0505,3.0517,3.0519,3.0521,3.0524,3.0432,3.0526,3.0525,3.0525,3.0525,3.0524,0,3.0616,3.0608,3.0617,3.0615,3.0622,3.0595,3.0592,3.0598,3.061,3.0605,3.061,3.062,3.0626,3.0608,3.0612,3.0622,3.0608,3.0623,3.062,3.0618,3.0544,3.0535,3.0634,3.0634,3.0634,3.0634,3.0634,3.0634,3.0669,3.0695,3.0681,3.0703,3.0695,3.0707,3.0707,3.0705,3.07,3.0713,3.0718,3.0706,3.0695,3.0697,3.0701,3.0695,3.0696,3.0715,3.0704,3.0635,3.0624,3.0613,3.0605,3.0717,3.0717,3.0777,3.0778,3.0778]}]]